Tracking 33197 objects as of 18-Feb-2026
HD Live streaming from Space Station
objects crossing your sky now

NOAA 17 DEB

Track NOAA 17 DEB now!
10-day predictions


NORAD ID: 48724
Int'l Code: 2002-032BJ
Perigee: 641.1 km
Apogee: 672.7 km
Inclination: 98.8 °
Period: 97.7 minutes
Semi major axis: 7027 km
RCS: Unknown
Launch date: June 24, 2002
Source: United States (US)
Launch site: AIR FORCE WESTERN TEST RANGE (AFWTR)

Note: This is SATELLITE DEBRIS
Your satellite tracking list
Your tracking list is empty




NASA's NSSDC Master Catalog

Two Line Element Set (TLE):
1 48724U 02032BH  26047.53440918  .00013088  00000-0  20098-2 0  9996
2 48724  98.7512  81.4970 0022428 317.3255  42.6208 14.73546523260024
Source of the keplerian elements: AFSPC